BEIDOU-3 M14 (43623 NORAD) Tracking and Keplerian Element Data

This shows tracking and keplerian element data for the satellite.

Feedback or suggestion? Click here.




ElementValue
Catalog43623
NameBEIDOU-3 M14
Epoch Orbit53
Epoch Day291.54424412
Epoch Year2018
RAAN156.3846
Inclination54.9776
Eccentricity0.0004642
Argument of Perigee317.1163
Mean Anonmoly223.525
Mean Motion1.86232401
Decay Rate2.1E-07
L11 43623U 18072B 18291.54424412 .00000021 00000-0 00000-0 0 9996
L22 43623 54.9776 156.3846 0004642 317.1163 223.5250 1.86232401 533

Live tracking and technical data element details for BEIDOU-3 M14 (NORAD 43623). BEIDOU-3 M14 can be tracked NOW for your location showing map with azimuth and elevation plus other details from your city location.

Track the satellite on the map from your city or location and see movement details for azimuth, elevation, latitude, longitude, range, height, and movement on the map or in text.







IsCatalogInMostPopularTable: catalog: 43623, numindb: 16
Update: records affected: 1



GetName: 43623 BEIDOU-3 M14

Hit Count: updated at: Thu, 15 Nov 2018 03:42:06 GMT